Location: Newark
(5.0949°S, 42.8042°W)
Time: 05:47:00
(UTC+00:00)

Hubble Space Telescope - Pass Details

Date: 29 September 2019
Orbit: 536 x 540 km, 28.5° (Epoch: 21 October)

Event Time Altitude Azimuth Distance (km) Brightness Sun altitude
Exits shadow 07:55:54 14° 295° (WNW) 1,533 2.5 -11.2°
Maximum altitude 07:59:23 77° 211° (SSW) 550 0.7 -10.3°
Drops below altitude 10° 08:03:30 10° 124° (ESE) 1,783 4.5 -9.3°
Sets 08:05:47 0° 122° (ESE) 2,676 5.5 -8.7°
